owner,sensor,date,latitude,longitude,vertical_datum,sea_water_temperature,qcFlag
Chevron,ioos:station:wmo:42876:1,2021-12-01T00:08:00Z,0.0000,0.0000,1.8,26.0,11111222
Chevron,ioos:station:wmo:42876:1,2021-12-01T00:18:00Z,0.0000,0.0000,1.5,26.0,11111222
Chevron,ioos:station:wmo:42876:1,2021-12-01T00:28:00Z,0.0000,0.0000,1.8,26.0,11111222
Chevron,ioos:station:wmo:42876:1,2021-12-01T00:38:00Z,0.0000,0.0000,1.8,26.0,11111222
Chevron,ioos:station:wmo:42876:1,2021-12-01T00:48:00Z,0.0000,0.0000,1.6,26.0,11111222
Chevron,ioos:station:wmo:42876:1,2021-12-01T00:58:00Z,0.0000,0.0000,1.8,26.0,11111222
Chevron,ioos:station:wmo:42876:1,2021-12-01T01:08:00Z,0.0000,0.0000,1.8,26.0,11111222
Chevron,ioos:station:wmo:42876:1,2021-12-01T01:18:00Z,0.0000,0.0000,2.2,26.0,11111222
Chevron,ioos:station:wmo:42876:1,2021-12-01T01:28:00Z,0.0000,0.0000,1.9,26.0,11111222
Chevron,ioos:station:wmo:42876:1,2021-12-01T01:38:00Z,0.0000,0.0000,2.2,25.9,11111222
Chevron,ioos:station:wmo:42876:1,2021-12-01T01:48:00Z,0.0000,0.0000,1.9,25.9,11111222
Chevron,ioos:station:wmo:42876:1,2021-12-01T01:58:00Z,0.0000,0.0000,2.1,25.9,11111222
Chevron,ioos:station:wmo:42876:1,2021-12-01T02:08:00Z,0.0000,0.0000,2.2,25.9,11111222
Chevron,ioos:station:wmo:42876:1,2021-12-01T02:18:00Z,0.0000,0.0000,2.5,25.9,11111222
Chevron,ioos:station:wmo:42876:1,2021-12-01T02:28:00Z,0.0000,0.0000,2.2,25.9,11111222
Chevron,ioos:station:wmo:42876:1,2021-12-01T02:38:00Z,0.0000,0.0000,2.3,25.9,11111222
Chevron,ioos:station:wmo:42876:1,2021-12-01T02:48:00Z,0.0000,0.0000,2.3,25.9,11111222
Chevron,ioos:station:wmo:42876:1,2021-12-01T02:58:00Z,0.0000,0.0000,2.3,25.9,11111222
Chevron,ioos:station:wmo:42876:1,2021-12-01T03:08:00Z,0.0000,0.0000,2.4,25.9,11111222
Chevron,ioos:station:wmo:42876:1,2021-12-01T03:18:00Z,0.0000,0.0000,2.3,25.9,11111222
Chevron,ioos:station:wmo:42876:1,2021-12-01T03:28:00Z,0.0000,0.0000,2.3,25.8,11111222
Chevron,ioos:station:wmo:42876:1,2021-12-01T03:38:00Z,0.0000,0.0000,2.2,25.9,11111222
Chevron,ioos:station:wmo:42876:1,2021-12-01T03:48:00Z,0.0000,0.0000,2.1,25.9,11111222
Chevron,ioos:station:wmo:42876:1,2021-12-01T03:58:00Z,0.0000,0.0000,2.3,25.9,11111222
Chevron,ioos:station:wmo:42876:1,2021-12-01T04:08:00Z,0.0000,0.0000,2.5,25.8,11111222
Chevron,ioos:station:wmo:42876:1,2021-12-01T04:18:00Z,0.0000,0.0000,2.5,25.9,11111222
Chevron,ioos:station:wmo:42876:1,2021-12-01T04:28:00Z,0.0000,0.0000,1.8,25.9,11111222
Chevron,ioos:station:wmo:42876:1,2021-12-01T04:38:00Z,0.0000,0.0000,2.0,25.9,11111222
Chevron,ioos:station:wmo:42876:1,2021-12-01T04:48:00Z,0.0000,0.0000,1.8,25.9,11111222
Chevron,ioos:station:wmo:42876:1,2021-12-01T04:58:00Z,0.0000,0.0000,1.8,25.9,11111222
Chevron,ioos:station:wmo:42876:1,2021-12-01T05:08:00Z,0.0000,0.0000,1.2,25.9,11111222
Chevron,ioos:station:wmo:42876:1,2021-12-01T05:18:00Z,0.0000,0.0000,1.3,25.9,11111222
Chevron,ioos:station:wmo:42876:1,2021-12-01T05:28:00Z,0.0000,0.0000,1.3,25.9,11111222
Chevron,ioos:station:wmo:42876:1,2021-12-01T05:38:00Z,0.0000,0.0000,1.5,25.9,11111222
Chevron,ioos:station:wmo:42876:1,2021-12-01T05:48:00Z,0.0000,0.0000,1.2,25.9,11111222
Chevron,ioos:station:wmo:42876:1,2021-12-01T05:58:00Z,0.0000,0.0000,1.3,25.9,11111222
Chevron,ioos:station:wmo:42876:1,2021-12-01T06:08:00Z,0.0000,0.0000,1.4,25.9,11111222
Chevron,ioos:station:wmo:42876:1,2021-12-01T06:18:00Z,0.0000,0.0000,1.8,26.0,11111222
Chevron,ioos:station:wmo:42876:1,2021-12-01T06:28:00Z,0.0000,0.0000,1.6,26.0,11111222
Chevron,ioos:station:wmo:42876:1,2021-12-01T06:38:00Z,0.0000,0.0000,1.7,26.0,11111222
Chevron,ioos:station:wmo:42876:1,2021-12-01T06:48:00Z,0.0000,0.0000,1.8,26.0,11111222
Chevron,ioos:station:wmo:42876:1,2021-12-01T06:58:00Z,0.0000,0.0000,1.9,26.0,11111222
Chevron,ioos:station:wmo:42876:1,2021-12-01T07:08:00Z,0.0000,0.0000,1.9,26.0,11111222
Chevron,ioos:station:wmo:42876:1,2021-12-01T07:18:00Z,0.0000,0.0000,1.8,26.0,11111222
Chevron,ioos:station:wmo:42876:1,2021-12-01T07:28:00Z,0.0000,0.0000,1.8,26.0,11111222
Chevron,ioos:station:wmo:42876:1,2021-12-01T07:38:00Z,0.0000,0.0000,1.9,26.0,11111222
Chevron,ioos:station:wmo:42876:1,2021-12-01T07:48:00Z,0.0000,0.0000,1.7,26.0,11111222
Chevron,ioos:station:wmo:42876:1,2021-12-01T07:58:00Z,0.0000,0.0000,2.0,26.0,11111222
Chevron,ioos:station:wmo:42876:1,2021-12-01T08:08:00Z,0.0000,0.0000,1.7,26.0,11111222
Chevron,ioos:station:wmo:42876:1,2021-12-01T08:18:00Z,0.0000,0.0000,1.8,26.0,11111222
Chevron,ioos:station:wmo:42876:1,2021-12-01T08:28:00Z,0.0000,0.0000,1.8,26.0,11111222
Chevron,ioos:station:wmo:42876:1,2021-12-01T08:38:00Z,0.0000,0.0000,1.8,26.0,11111222
Chevron,ioos:station:wmo:42876:1,2021-12-01T08:48:00Z,0.0000,0.0000,1.4,26.0,11111222
Chevron,ioos:station:wmo:42876:1,2021-12-01T08:58:00Z,0.0000,0.0000,1.7,26.0,11111222
Chevron,ioos:station:wmo:42876:1,2021-12-01T09:08:00Z,0.0000,0.0000,1.8,26.0,11111222
Chevron,ioos:station:wmo:42876:1,2021-12-01T09:18:00Z,0.0000,0.0000,1.9,26.0,11111222
Chevron,ioos:station:wmo:42876:1,2021-12-01T09:28:00Z,0.0000,0.0000,1.7,26.0,11111222
Chevron,ioos:station:wmo:42876:1,2021-12-01T09:38:00Z,0.0000,0.0000,2.0,26.0,11111222
Chevron,ioos:station:wmo:42876:1,2021-12-01T09:48:00Z,0.0000,0.0000,1.9,26.0,11111222
Chevron,ioos:station:wmo:42876:1,2021-12-01T09:58:00Z,0.0000,0.0000,1.8,26.0,11111222
Chevron,ioos:station:wmo:42876:1,2021-12-01T10:08:00Z,0.0000,0.0000,2.2,26.0,11111222
Chevron,ioos:station:wmo:42876:1,2021-12-01T10:18:00Z,0.0000,0.0000,1.9,26.0,11111222
Chevron,ioos:station:wmo:42876:1,2021-12-01T10:28:00Z,0.0000,0.0000,2.1,26.0,11111222
Chevron,ioos:station:wmo:42876:1,2021-12-01T10:38:00Z,0.0000,0.0000,1.9,26.0,11111222
Chevron,ioos:station:wmo:42876:1,2021-12-01T10:48:00Z,0.0000,0.0000,1.9,26.0,11111222
Chevron,ioos:station:wmo:42876:1,2021-12-01T10:58:00Z,0.0000,0.0000,2.0,26.0,11111222
Chevron,ioos:station:wmo:42876:1,2021-12-01T11:08:00Z,0.0000,0.0000,1.7,26.0,11111222
Chevron,ioos:station:wmo:42876:1,2021-12-01T11:18:00Z,0.0000,0.0000,2.0,26.0,11111222
Chevron,ioos:station:wmo:42876:1,2021-12-01T11:28:00Z,0.0000,0.0000,1.7,26.0,11111222
Chevron,ioos:station:wmo:42876:1,2021-12-01T11:38:00Z,0.0000,0.0000,1.9,26.0,11111222
Chevron,ioos:station:wmo:42876:1,2021-12-01T11:48:00Z,0.0000,0.0000,2.0,26.0,11111222
Chevron,ioos:station:wmo:42876:1,2021-12-01T11:58:00Z,0.0000,0.0000,2.1,26.0,11111222
Chevron,ioos:station:wmo:42876:1,2021-12-01T12:08:00Z,0.0000,0.0000,1.9,26.0,11111222
Chevron,ioos:station:wmo:42876:1,2021-12-01T12:18:00Z,0.0000,0.0000,2.0,26.0,11111222
Chevron,ioos:station:wmo:42876:1,2021-12-01T12:28:00Z,0.0000,0.0000,1.7,26.0,11111222
Chevron,ioos:station:wmo:42876:1,2021-12-01T12:38:00Z,0.0000,0.0000,1.9,26.0,11111222
Chevron,ioos:station:wmo:42876:1,2021-12-01T12:48:00Z,0.0000,0.0000,2.2,26.0,11111222
Chevron,ioos:station:wmo:42876:1,2021-12-01T12:58:00Z,0.0000,0.0000,2.1,26.0,11111222
Chevron,ioos:station:wmo:42876:1,2021-12-01T13:08:00Z,0.0000,0.0000,1.9,26.0,11111222
Chevron,ioos:station:wmo:42876:1,2021-12-01T13:18:00Z,0.0000,0.0000,1.6,26.0,11111222
Chevron,ioos:station:wmo:42876:1,2021-12-01T13:28:00Z,0.0000,0.0000,1.7,26.0,11111222
Chevron,ioos:station:wmo:42876:1,2021-12-01T13:38:00Z,0.0000,0.0000,1.8,26.0,11111222
Chevron,ioos:station:wmo:42876:1,2021-12-01T13:48:00Z,0.0000,0.0000,1.6,26.0,11111222
Chevron,ioos:station:wmo:42876:1,2021-12-01T13:58:00Z,0.0000,0.0000,2.0,26.0,11111222
Chevron,ioos:station:wmo:42876:1,2021-12-01T14:08:00Z,0.0000,0.0000,1.8,26.0,11111222
Chevron,ioos:station:wmo:42876:1,2021-12-01T14:18:00Z,0.0000,0.0000,2.1,26.0,11111222
Chevron,ioos:station:wmo:42876:1,2021-12-01T14:28:00Z,0.0000,0.0000,1.9,26.0,11111222
Chevron,ioos:station:wmo:42876:1,2021-12-01T14:38:00Z,0.0000,0.0000,1.6,26.0,11111222
Chevron,ioos:station:wmo:42876:1,2021-12-01T14:48:00Z,0.0000,0.0000,1.7,26.0,11111222
Chevron,ioos:station:wmo:42876:1,2021-12-01T14:58:00Z,0.0000,0.0000,2.0,26.0,11111222
Chevron,ioos:station:wmo:42876:1,2021-12-01T15:08:00Z,0.0000,0.0000,2.0,26.0,11111222
Chevron,ioos:station:wmo:42876:1,2021-12-01T15:18:00Z,0.0000,0.0000,1.8,26.0,11111222
Chevron,ioos:station:wmo:42876:1,2021-12-01T15:28:00Z,0.0000,0.0000,1.8,26.0,11111222
Chevron,ioos:station:wmo:42876:1,2021-12-01T15:38:00Z,0.0000,0.0000,2.1,26.0,11111222
Chevron,ioos:station:wmo:42876:1,2021-12-01T15:48:00Z,0.0000,0.0000,2.0,26.0,11111222
Chevron,ioos:station:wmo:42876:1,2021-12-01T15:58:00Z,0.0000,0.0000,2.0,26.0,11111222
Chevron,ioos:station:wmo:42876:1,2021-12-01T16:08:00Z,0.0000,0.0000,1.9,26.0,11111222
Chevron,ioos:station:wmo:42876:1,2021-12-01T16:18:00Z,0.0000,0.0000,2.0,26.0,11111222
Chevron,ioos:station:wmo:42876:1,2021-12-01T16:28:00Z,0.0000,0.0000,1.8,26.0,11111222
Chevron,ioos:station:wmo:42876:1,2021-12-01T16:38:00Z,0.0000,0.0000,2.0,26.0,11111222
Chevron,ioos:station:wmo:42876:1,2021-12-01T16:48:00Z,0.0000,0.0000,1.9,26.0,11111222
Chevron,ioos:station:wmo:42876:1,2021-12-01T16:58:00Z,0.0000,0.0000,1.8,26.0,11111222
Chevron,ioos:station:wmo:42876:1,2021-12-01T17:08:00Z,0.0000,0.0000,1.7,26.0,11111222
Chevron,ioos:station:wmo:42876:1,2021-12-01T17:18:00Z,0.0000,0.0000,2.1,26.1,11111222
Chevron,ioos:station:wmo:42876:1,2021-12-01T17:28:00Z,0.0000,0.0000,1.9,26.1,11111222
Chevron,ioos:station:wmo:42876:1,2021-12-01T17:38:00Z,0.0000,0.0000,1.8,26.1,11111222
Chevron,ioos:station:wmo:42876:1,2021-12-01T17:48:00Z,0.0000,0.0000,1.9,26.1,11111222
Chevron,ioos:station:wmo:42876:1,2021-12-01T17:58:00Z,0.0000,0.0000,2.0,26.1,11111222
Chevron,ioos:station:wmo:42876:1,2021-12-01T18:08:00Z,0.0000,0.0000,2.0,26.1,11111222
Chevron,ioos:station:wmo:42876:1,2021-12-01T18:18:00Z,0.0000,0.0000,1.8,26.1,11111222
Chevron,ioos:station:wmo:42876:1,2021-12-01T18:28:00Z,0.0000,0.0000,1.9,26.1,11111222
Chevron,ioos:station:wmo:42876:1,2021-12-01T18:38:00Z,0.0000,0.0000,1.8,26.1,11111222
Chevron,ioos:station:wmo:42876:1,2021-12-01T18:48:00Z,0.0000,0.0000,1.8,26.1,11111222
Chevron,ioos:station:wmo:42876:1,2021-12-01T18:58:00Z,0.0000,0.0000,1.5,26.1,11111222
Chevron,ioos:station:wmo:42876:1,2021-12-01T19:08:00Z,0.0000,0.0000,1.5,26.1,11111222
Chevron,ioos:station:wmo:42876:1,2021-12-01T19:18:00Z,0.0000,0.0000,1.6,26.1,11111222
Chevron,ioos:station:wmo:42876:1,2021-12-01T19:28:00Z,0.0000,0.0000,1.6,26.0,11111222
Chevron,ioos:station:wmo:42876:1,2021-12-01T19:38:00Z,0.0000,0.0000,1.3,26.0,11111222
Chevron,ioos:station:wmo:42876:1,2021-12-01T19:48:00Z,0.0000,0.0000,1.7,26.0,11111222
Chevron,ioos:station:wmo:42876:1,2021-12-01T19:58:00Z,0.0000,0.0000,1.7,26.0,11111222
Chevron,ioos:station:wmo:42876:1,2021-12-01T20:08:00Z,0.0000,0.0000,1.6,26.0,11111222
Chevron,ioos:station:wmo:42876:1,2021-12-01T20:18:00Z,0.0000,0.0000,1.6,26.0,11111222
Chevron,ioos:station:wmo:42876:1,2021-12-01T20:28:00Z,0.0000,0.0000,1.5,26.0,11111222
Chevron,ioos:station:wmo:42876:1,2021-12-01T20:38:00Z,0.0000,0.0000,1.6,25.9,11111222
Chevron,ioos:station:wmo:42876:1,2021-12-01T20:48:00Z,0.0000,0.0000,1.6,25.9,11111222
Chevron,ioos:station:wmo:42876:1,2021-12-01T20:58:00Z,0.0000,0.0000,1.9,25.9,11111222
Chevron,ioos:station:wmo:42876:1,2021-12-01T21:08:00Z,0.0000,0.0000,1.9,25.9,11111222
Chevron,ioos:station:wmo:42876:1,2021-12-01T21:18:00Z,0.0000,0.0000,1.8,25.9,11111222
Chevron,ioos:station:wmo:42876:1,2021-12-01T21:28:00Z,0.0000,0.0000,1.7,25.8,11111222
Chevron,ioos:station:wmo:42876:1,2021-12-01T21:38:00Z,0.0000,0.0000,1.9,25.8,11111222
Chevron,ioos:station:wmo:42876:1,2021-12-01T21:48:00Z,0.0000,0.0000,1.7,25.7,11111222
Chevron,ioos:station:wmo:42876:1,2021-12-01T21:58:00Z,0.0000,0.0000,2.0,25.7,11111222
Chevron,ioos:station:wmo:42876:1,2021-12-01T22:08:00Z,0.0000,0.0000,2.3,25.6,11111222
Chevron,ioos:station:wmo:42876:1,2021-12-01T22:18:00Z,0.0000,0.0000,1.9,25.6,11111222
Chevron,ioos:station:wmo:42876:1,2021-12-01T22:28:00Z,0.0000,0.0000,2.5,25.6,11111222
Chevron,ioos:station:wmo:42876:1,2021-12-01T22:38:00Z,0.0000,0.0000,2.3,25.5,11111222
Chevron,ioos:station:wmo:42876:1,2021-12-01T22:48:00Z,0.0000,0.0000,2.5,25.4,11111222
Chevron,ioos:station:wmo:42876:1,2021-12-01T22:58:00Z,0.0000,0.0000,2.3,25.4,11111222
Chevron,ioos:station:wmo:42876:1,2021-12-01T23:08:00Z,0.0000,0.0000,2.3,25.4,11111222
Chevron,ioos:station:wmo:42876:1,2021-12-01T23:18:00Z,0.0000,0.0000,1.9,25.4,11111222
Chevron,ioos:station:wmo:42876:1,2021-12-01T23:28:00Z,0.0000,0.0000,2.1,25.4,11111222
Chevron,ioos:station:wmo:42876:1,2021-12-01T23:38:00Z,0.0000,0.0000,2.2,25.2,11111222
Chevron,ioos:station:wmo:42876:1,2021-12-01T23:48:00Z,0.0000,0.0000,2.0,25.1,11111222
Chevron,ioos:station:wmo:42876:1,2021-12-01T23:58:00Z,0.0000,0.0000,2.2,25.1,11111222
Chevron,ioos:station:wmo:42876:1,2021-12-02T00:08:00Z,0.0000,0.0000,2.0,25.1,11111222
Chevron,ioos:station:wmo:42876:1,2021-12-02T00:18:00Z,0.0000,0.0000,2.1,25.1,11111222
Chevron,ioos:station:wmo:42876:1,2021-12-02T00:28:00Z,0.0000,0.0000,2.0,25.1,11111222
Chevron,ioos:station:wmo:42876:1,2021-12-02T00:38:00Z,0.0000,0.0000,1.9,25.1,11111222
Chevron,ioos:station:wmo:42876:1,2021-12-02T00:48:00Z,0.0000,0.0000,2.0,25.1,11111222
Chevron,ioos:station:wmo:42876:1,2021-12-02T00:58:00Z,0.0000,0.0000,1.6,25.1,11111222
Chevron,ioos:station:wmo:42876:1,2021-12-02T01:08:00Z,0.0000,0.0000,1.7,25.1,11111222
Chevron,ioos:station:wmo:42876:1,2021-12-02T01:18:00Z,0.0000,0.0000,1.6,25.1,11111222
Chevron,ioos:station:wmo:42876:1,2021-12-02T01:28:00Z,0.0000,0.0000,1.7,25.1,11111222
Chevron,ioos:station:wmo:42876:1,2021-12-02T01:38:00Z,0.0000,0.0000,1.8,25.2,11111222
Chevron,ioos:station:wmo:42876:1,2021-12-02T01:48:00Z,0.0000,0.0000,2.0,25.2,11111222
Chevron,ioos:station:wmo:42876:1,2021-12-02T01:58:00Z,0.0000,0.0000,1.7,25.3,11111222
Chevron,ioos:station:wmo:42876:1,2021-12-02T02:08:00Z,0.0000,0.0000,1.8,25.3,11111222
Chevron,ioos:station:wmo:42876:1,2021-12-02T02:18:00Z,0.0000,0.0000,1.8,25.3,11111222
Chevron,ioos:station:wmo:42876:1,2021-12-02T02:28:00Z,0.0000,0.0000,1.4,25.3,11111222
Chevron,ioos:station:wmo:42876:1,2021-12-02T02:38:00Z,0.0000,0.0000,1.7,25.4,11111222
Chevron,ioos:station:wmo:42876:1,2021-12-02T02:48:00Z,0.0000,0.0000,1.8,25.4,11111222
Chevron,ioos:station:wmo:42876:1,2021-12-02T02:58:00Z,0.0000,0.0000,1.7,25.4,11111222
Chevron,ioos:station:wmo:42876:1,2021-12-02T03:08:00Z,0.0000,0.0000,2.2,25.4,11111222
Chevron,ioos:station:wmo:42876:1,2021-12-02T03:18:00Z,0.0000,0.0000,1.9,25.4,11111222
Chevron,ioos:station:wmo:42876:1,2021-12-02T03:28:00Z,0.0000,0.0000,2.4,25.4,11111222
Chevron,ioos:station:wmo:42876:1,2021-12-02T03:38:00Z,0.0000,0.0000,2.1,25.4,11111222
Chevron,ioos:station:wmo:42876:1,2021-12-02T03:48:00Z,0.0000,0.0000,2.1,25.5,11111222
Chevron,ioos:station:wmo:42876:1,2021-12-02T03:58:00Z,0.0000,0.0000,2.3,25.5,11111222
Chevron,ioos:station:wmo:42876:1,2021-12-02T04:08:00Z,0.0000,0.0000,2.2,25.5,11111222
Chevron,ioos:station:wmo:42876:1,2021-12-02T04:18:00Z,0.0000,0.0000,2.1,25.4,11111222
Chevron,ioos:station:wmo:42876:1,2021-12-02T04:28:00Z,0.0000,0.0000,2.1,25.4,11111222
Chevron,ioos:station:wmo:42876:1,2021-12-02T04:38:00Z,0.0000,0.0000,1.7,25.3,11111222
Chevron,ioos:station:wmo:42876:1,2021-12-02T04:48:00Z,0.0000,0.0000,1.7,25.3,11111222
Chevron,ioos:station:wmo:42876:1,2021-12-02T04:58:00Z,0.0000,0.0000,1.5,25.3,11111222
Chevron,ioos:station:wmo:42876:1,2021-12-02T05:08:00Z,0.0000,0.0000,1.5,25.4,11111222
Chevron,ioos:station:wmo:42876:1,2021-12-02T05:18:00Z,0.0000,0.0000,1.8,25.4,11111222
Chevron,ioos:station:wmo:42876:1,2021-12-02T05:28:00Z,0.0000,0.0000,1.8,25.4,11111222
Chevron,ioos:station:wmo:42876:1,2021-12-02T05:38:00Z,0.0000,0.0000,1.7,25.4,11111222
Chevron,ioos:station:wmo:42876:1,2021-12-02T05:48:00Z,0.0000,0.0000,1.9,25.4,11111222
Chevron,ioos:station:wmo:42876:1,2021-12-02T05:58:00Z,0.0000,0.0000,1.8,25.4,11111222
Chevron,ioos:station:wmo:42876:1,2021-12-02T06:08:00Z,0.0000,0.0000,1.8,25.4,11111222
Chevron,ioos:station:wmo:42876:1,2021-12-02T06:18:00Z,0.0000,0.0000,1.9,25.4,11111222
Chevron,ioos:station:wmo:42876:1,2021-12-02T06:28:00Z,0.0000,0.0000,1.5,25.4,11111222
Chevron,ioos:station:wmo:42876:1,2021-12-02T06:38:00Z,0.0000,0.0000,1.8,25.3,11111222
Chevron,ioos:station:wmo:42876:1,2021-12-02T06:48:00Z,0.0000,0.0000,1.9,25.3,11111222
Chevron,ioos:station:wmo:42876:1,2021-12-02T06:58:00Z,0.0000,0.0000,1.7,25.1,11111222
Chevron,ioos:station:wmo:42876:1,2021-12-02T07:08:00Z,0.0000,0.0000,1.7,25.0,11111222
Chevron,ioos:station:wmo:42876:1,2021-12-02T07:18:00Z,0.0000,0.0000,1.9,24.9,11111222
Chevron,ioos:station:wmo:42876:1,2021-12-02T07:28:00Z,0.0000,0.0000,2.1,24.9,11111222
Chevron,ioos:station:wmo:42876:1,2021-12-02T07:38:00Z,0.0000,0.0000,2.0,25.0,11111222
Chevron,ioos:station:wmo:42876:1,2021-12-02T07:48:00Z,0.0000,0.0000,1.9,24.9,11111222
Chevron,ioos:station:wmo:42876:1,2021-12-02T07:58:00Z,0.0000,0.0000,2.0,24.9,11111222
Chevron,ioos:station:wmo:42876:1,2021-12-02T08:08:00Z,0.0000,0.0000,1.8,24.9,11111222
Chevron,ioos:station:wmo:42876:1,2021-12-02T08:18:00Z,0.0000,0.0000,1.7,24.9,11111222
Chevron,ioos:station:wmo:42876:1,2021-12-02T08:28:00Z,0.0000,0.0000,1.8,24.9,11111222
Chevron,ioos:station:wmo:42876:1,2021-12-02T08:38:00Z,0.0000,0.0000,2.3,24.9,11111222
Chevron,ioos:station:wmo:42876:1,2021-12-02T08:48:00Z,0.0000,0.0000,1.8,24.9,11111222
Chevron,ioos:station:wmo:42876:1,2021-12-02T08:58:00Z,0.0000,0.0000,1.9,25.0,11111222
Chevron,ioos:station:wmo:42876:1,2021-12-02T09:08:00Z,0.0000,0.0000,1.7,24.9,11111222
Chevron,ioos:station:wmo:42876:1,2021-12-02T09:18:00Z,0.0000,0.0000,1.6,24.9,11111222
Chevron,ioos:station:wmo:42876:1,2021-12-02T09:28:00Z,0.0000,0.0000,1.7,24.9,11111222
Chevron,ioos:station:wmo:42876:1,2021-12-02T09:38:00Z,0.0000,0.0000,1.7,25.0,11111222
Chevron,ioos:station:wmo:42876:1,2021-12-02T09:48:00Z,0.0000,0.0000,1.7,25.0,11111222
Chevron,ioos:station:wmo:42876:1,2021-12-02T09:58:00Z,0.0000,0.0000,1.7,25.0,11111222
Chevron,ioos:station:wmo:42876:1,2021-12-02T10:08:00Z,0.0000,0.0000,1.8,25.0,11111222
Chevron,ioos:station:wmo:42876:1,2021-12-02T10:18:00Z,0.0000,0.0000,1.8,25.0,11111222
Chevron,ioos:station:wmo:42876:1,2021-12-02T10:28:00Z,0.0000,0.0000,1.7,25.0,11111222
Chevron,ioos:station:wmo:42876:1,2021-12-02T10:38:00Z,0.0000,0.0000,1.6,24.9,11111222
Chevron,ioos:station:wmo:42876:1,2021-12-02T10:48:00Z,0.0000,0.0000,1.6,24.9,11111222
Chevron,ioos:station:wmo:42876:1,2021-12-02T10:58:00Z,0.0000,0.0000,1.7,24.9,11111222
Chevron,ioos:station:wmo:42876:1,2021-12-02T11:08:00Z,0.0000,0.0000,1.9,24.9,11111222
Chevron,ioos:station:wmo:42876:1,2021-12-02T11:18:00Z,0.0000,0.0000,1.8,24.9,11111222
Chevron,ioos:station:wmo:42876:1,2021-12-02T11:28:00Z,0.0000,0.0000,1.7,24.9,11111222
Chevron,ioos:station:wmo:42876:1,2021-12-02T11:38:00Z,0.0000,0.0000,1.9,24.9,11111222
Chevron,ioos:station:wmo:42876:1,2021-12-02T11:48:00Z,0.0000,0.0000,2.2,24.9,11111222
Chevron,ioos:station:wmo:42876:1,2021-12-02T11:58:00Z,0.0000,0.0000,2.2,24.9,11111222
Chevron,ioos:station:wmo:42876:1,2021-12-02T12:08:00Z,0.0000,0.0000,2.1,24.9,11111222
Chevron,ioos:station:wmo:42876:1,2021-12-02T12:18:00Z,0.0000,0.0000,2.2,24.9,11111222
Chevron,ioos:station:wmo:42876:1,2021-12-02T12:28:00Z,0.0000,0.0000,2.1,25.0,11111222
Chevron,ioos:station:wmo:42876:1,2021-12-02T12:38:00Z,0.0000,0.0000,2.0,25.0,11111222
Chevron,ioos:station:wmo:42876:1,2021-12-02T12:48:00Z,0.0000,0.0000,1.9,25.0,11111222
Chevron,ioos:station:wmo:42876:1,2021-12-02T12:58:00Z,0.0000,0.0000,1.6,25.0,11111222
Chevron,ioos:station:wmo:42876:1,2021-12-02T13:08:00Z,0.0000,0.0000,2.0,24.9,11111222
Chevron,ioos:station:wmo:42876:1,2021-12-02T13:18:00Z,0.0000,0.0000,2.1,24.9,11111222
Chevron,ioos:station:wmo:42876:1,2021-12-02T13:28:00Z,0.0000,0.0000,2.1,24.9,11111222
Chevron,ioos:station:wmo:42876:1,2021-12-02T13:38:00Z,0.0000,0.0000,2.3,24.9,11111222
Chevron,ioos:station:wmo:42876:1,2021-12-02T13:48:00Z,0.0000,0.0000,2.2,24.9,11111222
Chevron,ioos:station:wmo:42876:1,2021-12-02T13:58:00Z,0.0000,0.0000,2.1,24.9,11111222
Chevron,ioos:station:wmo:42876:1,2021-12-02T14:08:00Z,0.0000,0.0000,2.2,24.9,11111222
Chevron,ioos:station:wmo:42876:1,2021-12-02T14:18:00Z,0.0000,0.0000,2.2,24.9,11111222
Chevron,ioos:station:wmo:42876:1,2021-12-02T14:28:00Z,0.0000,0.0000,2.3,24.9,11111222
Chevron,ioos:station:wmo:42876:1,2021-12-02T14:38:00Z,0.0000,0.0000,2.4,24.9,11111222
Chevron,ioos:station:wmo:42876:1,2021-12-02T14:48:00Z,0.0000,0.0000,1.7,24.9,11111222
Chevron,ioos:station:wmo:42876:1,2021-12-02T14:58:00Z,0.0000,0.0000,1.8,24.9,11111222
Chevron,ioos:station:wmo:42876:1,2021-12-02T15:08:00Z,0.0000,0.0000,1.8,24.9,11111222
Chevron,ioos:station:wmo:42876:1,2021-12-02T15:18:00Z,0.0000,0.0000,1.9,24.9,11111222
Chevron,ioos:station:wmo:42876:1,2021-12-02T15:28:00Z,0.0000,0.0000,1.6,24.9,11111222
Chevron,ioos:station:wmo:42876:1,2021-12-02T15:38:00Z,0.0000,0.0000,2.0,24.9,11111222
Chevron,ioos:station:wmo:42876:1,2021-12-02T15:48:00Z,0.0000,0.0000,1.9,24.9,11111222
Chevron,ioos:station:wmo:42876:1,2021-12-02T15:58:00Z,0.0000,0.0000,1.8,24.9,11111222
Chevron,ioos:station:wmo:42876:1,2021-12-02T16:08:00Z,0.0000,0.0000,1.8,24.9,11111222
Chevron,ioos:station:wmo:42876:1,2021-12-02T16:18:00Z,0.0000,0.0000,1.5,24.9,11111222
Chevron,ioos:station:wmo:42876:1,2021-12-02T16:28:00Z,0.0000,0.0000,2.0,25.0,11111222
Chevron,ioos:station:wmo:42876:1,2021-12-02T16:38:00Z,0.0000,0.0000,1.9,25.0,11111222
Chevron,ioos:station:wmo:42876:1,2021-12-02T16:48:00Z,0.0000,0.0000,1.5,25.0,11111222
Chevron,ioos:station:wmo:42876:1,2021-12-02T16:58:00Z,0.0000,0.0000,1.8,25.0,11111222
Chevron,ioos:station:wmo:42876:1,2021-12-02T17:08:00Z,0.0000,0.0000,1.6,25.0,11111222
Chevron,ioos:station:wmo:42876:1,2021-12-02T17:18:00Z,0.0000,0.0000,1.6,25.0,11111222
Chevron,ioos:station:wmo:42876:1,2021-12-02T17:28:00Z,0.0000,0.0000,1.5,25.0,11111222
Chevron,ioos:station:wmo:42876:1,2021-12-02T17:38:00Z,0.0000,0.0000,1.7,25.0,11111222
Chevron,ioos:station:wmo:42876:1,2021-12-02T17:48:00Z,0.0000,0.0000,1.8,25.0,11111222
Chevron,ioos:station:wmo:42876:1,2021-12-02T17:58:00Z,0.0000,0.0000,1.7,24.9,11111222
Chevron,ioos:station:wmo:42876:1,2021-12-02T18:08:00Z,0.0000,0.0000,1.9,24.9,11111222
Chevron,ioos:station:wmo:42876:1,2021-12-02T18:18:00Z,0.0000,0.0000,1.8,25.0,11111222
Chevron,ioos:station:wmo:42876:1,2021-12-02T18:28:00Z,0.0000,0.0000,1.8,24.9,11111222
Chevron,ioos:station:wmo:42876:1,2021-12-02T18:38:00Z,0.0000,0.0000,1.6,24.9,11111222
Chevron,ioos:station:wmo:42876:1,2021-12-02T18:48:00Z,0.0000,0.0000,1.7,24.9,11111222
Chevron,ioos:station:wmo:42876:1,2021-12-02T18:58:00Z,0.0000,0.0000,1.9,24.9,11111222
Chevron,ioos:station:wmo:42876:1,2021-12-02T19:08:00Z,0.0000,0.0000,2.0,24.9,11111222
Chevron,ioos:station:wmo:42876:1,2021-12-02T19:18:00Z,0.0000,0.0000,1.8,24.9,11111222
Chevron,ioos:station:wmo:42876:1,2021-12-02T19:28:00Z,0.0000,0.0000,2.1,24.9,11111222
Chevron,ioos:station:wmo:42876:1,2021-12-02T19:38:00Z,0.0000,0.0000,1.8,24.9,11111222
Chevron,ioos:station:wmo:42876:1,2021-12-02T19:48:00Z,0.0000,0.0000,1.9,24.9,11111222
Chevron,ioos:station:wmo:42876:1,2021-12-02T19:58:00Z,0.0000,0.0000,1.7,24.9,11111222
Chevron,ioos:station:wmo:42876:1,2021-12-02T20:08:00Z,0.0000,0.0000,2.2,24.9,11111222
Chevron,ioos:station:wmo:42876:1,2021-12-02T20:18:00Z,0.0000,0.0000,1.9,24.9,11111222
Chevron,ioos:station:wmo:42876:1,2021-12-02T20:28:00Z,0.0000,0.0000,2.1,24.9,11111222
Chevron,ioos:station:wmo:42876:1,2021-12-02T20:38:00Z,0.0000,0.0000,2.0,24.9,11111222
Chevron,ioos:station:wmo:42876:1,2021-12-02T20:48:00Z,0.0000,0.0000,1.8,24.9,11111222
Chevron,ioos:station:wmo:42876:1,2021-12-02T20:58:00Z,0.0000,0.0000,1.8,24.9,11111222
Chevron,ioos:station:wmo:42876:1,2021-12-02T21:08:00Z,0.0000,0.0000,1.8,25.0,11111222
Chevron,ioos:station:wmo:42876:1,2021-12-02T21:18:00Z,0.0000,0.0000,1.9,25.0,11111222
Chevron,ioos:station:wmo:42876:1,2021-12-02T21:28:00Z,0.0000,0.0000,1.7,25.0,11111222
Chevron,ioos:station:wmo:42876:1,2021-12-02T21:38:00Z,0.0000,0.0000,1.4,25.0,11111222